date time,Reservoir_QI,Lateral_Q,Reservoir_QI.RTC,Reservoir_QO.RTC,Reservoir_S.RTC,Reservoir_FB.RTC,Reservoir_QS.RTC,Reservoir_QT.RTC,Reservoir_QO.RTC_Delay[0],Reservoir_QO.RTC_Delay[1],Reservoir_QO.RTC_Delay[2],Reservoir_QO.RTC_Delay[3],Reservoir_QO.RTC_Delay[4],Reservoir_QO.RTC_Delay[5],Reservoir_QO.RTC_Delay[6],Reservoir_QO.RTC_Delay[7],Gauge_Q1.RTC,Gauge_Q2.RTC,Gauge_Q.RTC,Rule_qT.RTC,Trigger_Status
2013-05-19 22:00:00,5.41750001907,7.57131004333,,,64635600,436.5,,,,,,,,,,,,,,,
2013-05-19 23:00:00,5.41750001907,8.86557006836,5.41750001907,26,64561503.0001,436.634048359,0,26,,,,,,,,,,7.57131004333,,0.5,1
2013-05-20 00:00:00,5.41750001907,13.8494701385,5.41750001907,52,64393806.0001,436.575314371,0,52,26,,,,,,,,,8.86557006836,,1,1
2013-05-20 01:00:00,5.41750001907,12.8138399124,5.41750001907,45.5817365657,64249214.7486,436.524672912,0,45.5817365657,52,26,,,,,,,,13.8494701385,,0.876571857032,1
2013-05-20 02:00:00,5.41750001907,12.8138399124,5.41750001907,32.4149571206,64152023.903,436.490632912,0,32.4149571206,45.5817365657,52,26,,,,,,,12.8138399124,,0.623364560012,1
2013-05-20 03:00:00,5.41750001907,13.4987096786,5.41750001907,23.5645570185,64086694.4978,436.467752022,0,23.5645570185,32.4149571206,45.5817365657,52,26,,,,,,12.8138399124,,0.453164558049,1
2013-05-20 04:00:00,5.41750001907,16.0639190674,5.41750001907,17.6155257999,64042781.605,436.452372026,0,17.6155257999,23.5645570185,32.4149571206,45.5817365657,52,26,,,,,13.4987096786,,0.338760111537,1
2013-05-20 05:00:00,5.41750001907,17.6501102448,5.41750001907,13.616726646,64013264.3891,436.442033953,0,13.616726646,17.6155257999,23.5645570185,32.4149571206,45.5817365657,52,26,,,,16.0639190674,,0.261860127807,1
2013-05-20 06:00:00,5.41750001907,16.8464698792,5.41750001907,10.9288277115,63993423.6094,436.435084943,0,10.9288277115,13.616726646,17.6155257999,23.5645570185,32.4149571206,45.5817365657,52,26,,32.4961347653,17.6501102448,50.1462450101,0.210169763683,1
2013-05-20 07:00:00,5.41750001907,16.0639190674,5.41750001907,9.12208513617,63980087.103,436.430413981,0,9.12208513617,10.9288277115,13.616726646,17.6155257999,23.5645570185,32.4149571206,45.5817365657,52,26,26.1417513964,16.8464698792,42.9882212756,0.175424714157,1
2013-05-20 08:00:00,5.60375022888,15.6820802689,5.60375022888,7.90763518353,63971793.1172,436.427509106,0,7.90763518353,9.12208513617,10.9288277115,13.616726646,17.6155257999,23.5645570185,32.4149571206,45.5817365657,52,19.7904840412,16.0639190674,35.8544031086,0.152069907376,1
2013-05-20 09:00:00,5.60375022888,14.2046699524,5.60375022888,7.15236762032,63966218.0946,436.425556517,0,7.15236762032,7.90763518353,9.12208513617,10.9288277115,13.616726646,17.6155257999,23.5645570185,32.4149571206,45.5817365657,15.0786825268,15.6820802689,30.7607627956,0.13754553116,1
2013-05-20 10:00:00,5.60375022888,13.4987096786,5.60375022888,6.64469449141,63962470.6952,436.424244033,0,6.64469449141,7.15236762032,7.90763518353,9.12208513617,10.9288277115,13.616726646,17.6155257999,23.5645570185,32.4149571206,11.9145730002,14.2046699524,26.1192429526,0.127782586373,1
2013-05-20 11:00:00,5.60375022888,13.1546096802,5.60375022888,6.3034485299,63959951.7813,436.423361812,0,6.3034485299,6.64469449141,7.15236762032,7.90763518353,9.12208513617,10.9288277115,13.616726646,17.6155257999,23.5645570185,9.79383856106,13.4987096786,23.2925482397,0.121220164036,1
2013-05-20 12:00:00,5.60375022888,12.8138399124,5.60375022888,6.07407100402,63958258.6266,436.422768803,0,6.07407100402,6.3034485299,6.64469449141,7.15236762032,7.90763518353,9.12208513617,10.9288277115,13.616726646,17.6155257999,8.38054208545,13.1546096802,21.5351517656,0.11680905777,1
2013-05-20 13:00:00,5.60375022888,12.1500597,5.60375022888,5.91988881491,63957120.5276,436.422370197,0,5.91988881491,6.07407100402,6.3034485299,6.64469449141,7.15236762032,7.90763518353,9.12208513617,10.9288277115,13.616726646,7.44887452347,12.8138399124,20.2627144359,0.113844015671,1
2013-05-20 14:00:00,5.60375022888,11.8259401321,5.60375022888,5.81625116624,63956355.5243,436.422102263,0,5.81625116624,5.91988881491,6.07407100402,6.3034485299,6.64469449141,7.15236762032,7.90763518353,9.12208513617,10.9288277115,6.83484089377,12.1500597,18.9849005938,0.111850983966,1
2013-05-20 15:00:00,5.60375022888,11.1932401657,5.60375022888,5.74658837131,63955841.307,436.421922164,0,5.74658837131,5.81625116624,5.91988881491,6.07407100402,6.3034485299,6.64469449141,7.15236762032,7.90763518353,9.12208513617,6.42820761907,11.8259401321,18.2541477512,0.110511314833,1
2013-05-20 16:00:00,5.60375022888,9.98999977112,5.60375022888,5.69976267563,63955495.6622,436.421801106,0,5.69976267563,5.74658837131,5.81625116624,5.91988881491,6.07407100402,6.3034485299,6.64469449141,7.15236762032,7.90763518353,6.15793113551,11.1932401657,17.3511713012,0.109610820685,1
2013-05-20 17:00:00,5.60375022888,9.98999977112,5.60375022888,5.66828754206,63955263.3278,436.421719733,0,5.66828754206,5.69976267563,5.74658837131,5.81625116624,5.91988881491,6.07407100402,6.3034485299,6.64469449141,7.15236762032,5.976257627,9.98999977112,15.9662573981,0.109005529655,1
2013-05-20 18:00:00,5.60375022888,10.5816297531,5.60375022888,5.64713069603,63955107.1581,436.421665037,0,5.64713069603,5.66828754206,5.69976267563,5.74658837131,5.81625116624,5.91988881491,6.07407100402,6.3034485299,6.64469449141,5.85414095868,9.98999977112,15.8441407298,0.108598667231,1
2013-05-20 19:00:00,5.60375022888,10.5816297531,5.60375022888,5.6329095607,63955002.1845,436.421628271,0,5.6329095607,5.64713069603,5.66828754206,5.69976267563,5.74658837131,5.81625116624,5.91988881491,6.07407100402,6.3034485299,5.77205700047,10.5816297531,16.3536867536,0.10832518386,1
2013-05-20 20:00:00,5.60375022888,9.70139980316,5.60375022888,5.62335044732,63954931.6238,436.421603558,0,5.62335044732,5.6329095607,5.64713069603,5.66828754206,5.69976267563,5.74658837131,5.81625116624,5.91988881491,6.07407100402,5.71688209037,10.5816297531,16.2985118435,0.108141354756,1
2013-05-20 21:00:00,5.60375022888,9.98999977112,5.60375022888,5.61692503567,63954884.1945,436.421586946,0,5.61692503567,5.62335044732,5.6329095607,5.64713069603,5.66828754206,5.69976267563,5.74658837131,5.81625116624,5.91988881491,5.67979481083,9.70139980316,15.381194614,0.108017789148,1
2013-05-20 22:00:00,5.60375022888,9.70139980316,5.60375022888,5.61260602478,63954852.3136,436.42157578,0,5.61260602478,5.61692503567,5.62335044732,5.6329095607,5.64713069603,5.66828754206,5.69976267563,5.74658837131,5.81625116624,5.654865612,9.98999977112,15.6448653831,0.107934731246,1
2013-05-20 23:00:00,5.60375022888,9.41724014282,5.60375022888,5.60970288703,63954830.884,436.421568275,0,5.60970288703,5.61260602478,5.61692503567,5.62335044732,5.6329095607,5.64713069603,5.66828754206,5.69976267563,5.74658837131,5.63810878967,9.70139980316,15.3395085928,0.107878901674,1
2013-05-21 00:00:00,5.60375022888,9.13862991333,5.60375022888,5.60775146597,63954816.4796,436.42156323,0,5.60775146597,5.60970288703,5.61260602478,5.61692503567,5.62335044732,5.6329095607,5.64713069603,5.66828754206,5.69976267563,5.626845247,9.41724014282,15.0440853898,0.107841374346,1
2013-05-21 01:00:00,5.60375022888,9.13862991333,5.60375022888,5.60643976655,63954806.7972,436.421559839,0,5.60643976655,5.60775146597,5.60970288703,5.61260602478,5.61692503567,5.62335044732,5.6329095607,5.64713069603,5.66828754206,5.61927415799,9.13862991333,14.7579040713,0.107816149357,1
2013-05-21 02:00:00,5.60375022888,8.86557006836,5.60375022888,5.60555807296,63954800.289,436.421557559,0,5.60555807296,5.60643976655,5.60775146597,5.60970288703,5.61260602478,5.61692503567,5.62335044732,5.6329095607,5.64713069603,5.61418504967,9.13862991333,14.752814963,0.107799193711,1
2013-05-21 03:00:00,5.60375022888,8.86557006836,5.60375022888,5.60496541925,63954795.9143,436.421556027,0,5.60496541925,5.60555807296,5.60643976655,5.60775146597,5.60970288703,5.61260602478,5.61692503567,5.62335044732,5.6329095607,5.6107642705,8.86557006836,14.4763343389,0.107787796524,1
2013-05-21 04:00:00,5.60375022888,8.86557006836,5.60375022888,5.60456705132,63954792.9738,436.421554997,0,5.60456705132,5.60496541925,5.60555807296,5.60643976655,5.60775146597,5.60970288703,5.61260602478,5.61692503567,5.62335044732,5.60846490303,8.86557006836,14.4740349714,0.107780135602,1
2013-05-21 05:00:00,5.60375022888,8.3327703476,5.60375022888,5.60429927774,63954790.9972,436.421554305,0,5.60429927774,5.60456705132,5.60496541925,5.60555807296,5.60643976655,5.60775146597,5.60970288703,5.61260602478,5.61692503567,5.60691932218,8.86557006836,14.4724893905,0.10777498611,1
2013-05-21 06:00:00,5.60375022888,8.59694957733,5.60375022888,5.60411928665,63954789.6686,436.42155384,0,5.60411928665,5.60429927774,5.60456705132,5.60496541925,5.60555807296,5.60643976655,5.60775146597,5.60970288703,5.61260602478,5.60588041902,8.3327703476,13.9386507666,0.107771524743,1
2013-05-21 07:00:00,5.60375022888,8.3327703476,5.60375022888,5.60399830085,63954788.7755,436.421553527,0,5.60399830085,5.60411928665,5.60429927774,5.60456705132,5.60496541925,5.60555807296,5.60643976655,5.60775146597,5.60970288703,5.60518209269,8.59694957733,14.20213167,0.107769198093,1
2013-05-21 08:00:00,4.29874992371,8.3327703476,4.29874992371,5.60391697703,63950090.1741,436.419907895,0,5.60391697703,5.60399830085,5.60411928665,5.60429927774,5.60456705132,5.60496541925,5.60555807296,5.60643976655,5.60775146597,5.60471269413,8.3327703476,13.9374830417,0.107767634174,1
2013-05-21 09:00:00,4.29874992371,8.07413959503,4.29874992371,5.17605258304,63946931.8845,436.418801739,0,5.17605258304,5.60391697703,5.60399830085,5.60411928665,5.60429927774,5.60456705132,5.60496541925,5.60555807296,5.60643976655,5.60439717543,8.3327703476,13.937167523,0.0995394727508,1
2013-05-21 10:00:00,4.29874992371,8.07413959503,4.29874992371,4.88845217992,63944808.9564,436.418058207,0,4.88845217992,5.17605258304,5.60391697703,5.60399830085,5.60411928665,5.60429927774,5.60456705132,5.60496541925,5.60555807296,5.58279460466,8.07413959503,13.6569341997,0.0940086957678,1
2013-05-21 11:00:00,4.29874992371,7.32600021362,4.29874992371,4.69513393929,63943381.974,436.417558423,0,4.69513393929,4.88845217992,5.17605258304,5.60391697703,5.60399830085,5.60411928665,5.60429927774,5.60456705132,5.60496541925,5.52549289063,8.07413959503,13.5996324857,0.090291037294,1
2013-05-21 12:00:00,4.29874992371,8.07413959503,4.29874992371,4.56518995534,63942422.7898,436.417222479,0,4.56518995534,4.69513393929,4.88845217992,5.17605258304,5.60391697703,5.60399830085,5.60411928665,5.60429927774,5.60456705132,5.4014140774,7.32600021362,12.727414291,0.0877921145257,1
2013-05-21 13:00:00,4.29874992371,8.07413959503,4.29874992371,4.4778446593,63941778.0488,436.416996666,0,4.4778446593,4.56518995534,4.69513393929,4.88845217992,5.17605258304,5.60391697703,5.60399830085,5.60411928665,5.60429927774,5.18966829242,8.07413959503,13.2638078874,0.0861123972942,1
2013-05-21 14:00:00,4.29874992371,8.07413959503,4.29874992371,4.41913320138,63941344.669,436.41684488,0,4.41913320138,4.4778446593,4.56518995534,4.69513393929,4.88845217992,5.17605258304,5.60391697703,5.60399830085,5.60411928665,4.96177579969,8.07413959503,13.0359153947,0.0849833307958,1
2013-05-21 15:00:00,4.29874992371,7.81995010376,4.29874992371,4.37966873741,63941053.3613,436.416742853,0,4.37966873741,4.41913320138,4.4778446593,4.56518995534,4.69513393929,4.88845217992,5.17605258304,5.60391697703,5.60399830085,4.76581084199,8.07413959503,12.839950437,0.0842243987964,1
2013-05-21 16:00:00,4.29874992371,7.81995010376,4.29874992371,4.35314165102,63940857.5511,436.416674272,0,4.35314165102,4.37966873741,4.41913320138,4.4778446593,4.56518995534,4.69513393929,4.88845217992,5.17605258304,5.60391697703,4.61269731047,7.81995010376,12.4326474142,0.0837142625195,1
2013-05-21 17:00:00,4.29874992371,7.32600021362,4.29874992371,4.33531076617,63940725.932,436.416628174,0,4.33531076617,4.35314165102,4.37966873741,4.41913320138,4.4778446593,4.56518995534,4.69513393929,4.88845217992,5.17605258304,4.50977798835,7.81995010376,12.3297280921,0.0833713608878,1
2013-05-21 18:00:00,4.29874992371,7.57131004333,4.29874992371,4.32332526388,63940637.4608,436.416597188,0,4.32332526388,4.33531076617,4.35314165102,4.37966873741,4.41913320138,4.4778446593,4.56518995534,4.69513393929,4.88845217992,4.44059803566,7.32600021362,11.7665982493,0.0831408704593,1
2013-05-21 19:00:00,4.29874992371,7.57131004333,4.29874992371,4.31526889055,63940577.9925,436.41657636,0,4.31526889055,4.32332526388,4.33531076617,4.35314165102,4.37966873741,4.41913320138,4.4778446593,4.56518995534,4.69513393929,4.39409689521,7.57131004333,11.9654069385,0.0829859402029,1
2013-05-21 20:00:00,4.29874992371,7.57131004333,4.29874992371,4.3098535855,63940538.0193,436.41656236,0,4.3098535855,4.31526889055,4.32332526388,4.33531076617,4.35314165102,4.37966873741,4.41913320138,4.4778446593,4.56518995534,4.36283992004,7.57131004333,11.9341499634,0.0828817997211,1
2013-05-21 21:00:00,4.29874992371,7.32600021362,4.29874992371,4.30621354455,63940511.1503,436.416552949,0,4.30621354455,4.3098535855,4.31526889055,4.32332526388,4.33531076617,4.35314165102,4.37966873741,4.41913320138,4.4778446593,4.34182971497,7.57131004333,11.9131397583,0.0828117989337,1
2013-05-21 22:00:00,4.29874992371,7.57131004333,4.29874992371,4.30376679445,63940493.0896,436.416546624,0,4.30376679445,4.30621354455,4.3098535855,4.31526889055,4.32332526388,4.33531076617,4.35314165102,4.37966873741,4.41913320138,4.32770714826,7.32600021362,11.6537073619,0.0827647460471,1
2013-05-21 23:00:00,4.29874992371,7.32600021362,4.29874992371,4.30212214648,63940480.9496,436.416542372,0,4.30212214648,4.30376679445,4.30621354455,4.3098535855,4.31526889055,4.32332526388,4.33531076617,4.35314165102,4.37966873741,4.31821429039,7.57131004333,11.8895243337,0.0827331182015,1
2013-05-22 00:00:00,4.29874992371,7.57131004333,4.29874992371,4.3010166527,63940472.7893,436.416539514,0,4.3010166527,4.30212214648,4.30376679445,4.30621354455,4.3098535855,4.31526889055,4.32332526388,4.33531076617,4.35314165102,4.31183341414,7.32600021362,11.6378336278,0.0827118587057,1
2013-05-22 01:00:00,4.29874992371,7.32600021362,4.29874992371,4.30027356573,63940467.3042,436.416537593,0,4.30027356573,4.3010166527,4.30212214648,4.30376679445,4.30621354455,4.3098535855,4.31526889055,4.32332526388,4.33531076617,4.30754433889,7.57131004333,11.8788543822,0.0826975685717,1
2013-05-22 02:00:00,4.29874992371,7.32600021362,4.29874992371,4.29977408012,63940463.6173,436.416536301,0,4.29977408012,4.30027356573,4.3010166527,4.30212214648,4.30376679445,4.30621354455,4.3098535855,4.31526889055,4.32332526388,4.30466132317,7.32600021362,11.6306615368,0.0826879630793,1
2013-05-22 03:00:00,4.29874992371,7.32600021362,4.29874992371,4.2994383376,63940461.139,436.416535433,0,4.2994383376,4.29977408012,4.30027356573,4.3010166527,4.30212214648,4.30376679445,4.30621354455,4.3098535855,4.31526889055,4.30272342768,7.32600021362,11.6287236413,0.0826815064923,1
2013-05-22 04:00:00,4.29874992371,7.32600021362,4.29874992371,4.29921265938,63940459.4731,436.41653485,0,4.29921265938,4.2994383376,4.29977408012,4.30027356573,4.3010166527,4.30212214648,4.30376679445,4.30621354455,4.3098535855,4.30142081981,7.32600021362,11.6274210334,0.0826771665265,1
2013-05-22 05:00:00,4.29874992371,7.32600021362,4.29874992371,4.29906096375,63940458.3534,436.416534458,0,4.29906096375,4.29921265938,4.2994383376,4.29977408012,4.30027356573,4.3010166527,4.30212214648,4.30376679445,4.30621354455,4.30054523738,7.32600021362,11.626545451,0.0826742493029,1
2013-05-22 06:00:00,4.29874992371,7.32600021362,4.29874992371,4.29895899754,63940457.6007,436.416534194,0,4.29895899754,4.29906096375,4.29921265938,4.2994383376,4.29977408012,4.30027356573,4.3010166527,4.30212214648,4.30376679445,4.29995669142,7.32600021362,11.625956905,0.0826722884142,1
2013-05-22 07:00:00,4.29874992371,7.32600021362,4.29874992371,4.29889045821,63940457.0948,436.416534017,0,4.29889045821,4.29895899754,4.29906096375,4.29921265938,4.2994383376,4.29977408012,4.30027356573,4.3010166527,4.30212214648,4.29956108464,7.32600021362,11.6255612983,0.0826709703503,1
2013-05-22 08:00:00,4.5,7.81995010376,4.5,4.29884438771,63941181.255,436.416787646,0,4.29884438771,4.29889045821,4.29895899754,4.29906096375,4.29921265938,4.2994383376,4.29977408012,4.30027356573,4.3010166527,4.29929516705,7.32600021362,11.6252953807,0.0826700843791,1
2013-05-22 09:00:00,4.5,7.32600021362,4.5,4.3647879188,63941668.0185,436.416958129,0,4.3647879188,4.29884438771,4.29889045821,4.29895899754,4.29906096375,4.29921265938,4.2994383376,4.29977408012,4.30027356573,4.29911642348,7.81995010376,12.1190665272,0.0839382292076,1
2013-05-22 10:00:00,4.5,7.32600021362,4.5,4.40911361261,63941995.2095,436.417072724,0,4.40911361261,4.3647879188,4.29884438771,4.29889045821,4.29895899754,4.29906096375,4.29921265938,4.2994383376,4.29977408012,4.30229500118,7.32600021362,11.6282952148,0.0847906463963,1
2013-05-22 11:00:00,4.5,7.32600021362,4.5,4.43890830361,63942215.1396,436.417149752,0,4.43890830361,4.40911361261,4.3647879188,4.29884438771,4.29889045821,4.29895899754,4.29906096375,4.29921265938,4.2994383376,4.31102901637,7.32600021362,11.63702923,0.0853636212233,1
2013-05-22 12:00:00,4.5,7.57131004333,4.5,4.45893559559,63942362.9714,436.417201529,0,4.45893559559,4.43890830361,4.40911361261,4.3647879188,4.29884438771,4.29889045821,4.29895899754,4.29906096375,4.29921265938,4.3300947161,7.32600021362,11.6560949297,0.0857487614536,1
2013-05-22 13:00:00,4.5,8.07413959503,4.5,4.4723974712,63942462.3405,436.417236332,0,4.4723974712,4.45893559559,4.43890830361,4.40911361261,4.3647879188,4.29884438771,4.29889045821,4.29895899754,4.29906096375,4.36270258154,7.57131004333,11.9340126249,0.0860076436768,1
2013-05-22 14:00:00,4.5,8.3327703476,4.5,4.48144622799,63942529.1341,436.417259725,0,4.48144622799,4.4723974712,4.45893559559,4.43890830361,4.40911361261,4.3647879188,4.29884438771,4.29889045821,4.29895899754,4.39781572306,8.07413959503,12.4719553181,0.0861816582306,1
2013-05-22 15:00:00,4.5,8.3327703476,4.5,4.48752858994,63942574.0312,436.41727545,0,4.48752858994,4.48144622799,4.4723974712,4.45893559559,4.43890830361,4.40911361261,4.3647879188,4.29884438771,4.29889045821,4.42801540251,8.3327703476,12.7607857501,0.0862986267296,1
2013-05-22 16:00:00,4.5,8.86557006836,4.5,4.49161701088,63942604.21,436.41728602,0,4.49161701088,4.48752858994,4.48144622799,4.4723974712,4.45893559559,4.43890830361,4.40911361261,4.3647879188,4.29884438771,4.45161364313,8.3327703476,12.7843839907,0.0863772502092,1
2013-05-22 17:00:00,4.5,9.13862991333,4.5,4.49436515147,63942624.4954,436.417293125,0,4.49436515147,4.49161701088,4.48752858994,4.48144622799,4.4723974712,4.45893559559,4.43890830361,4.40911361261,4.3647879188,4.4674758266,8.86557006836,13.333045895,0.0864300990668,1
2013-05-22 18:00:00,4.5,9.13862991333,4.5,4.49621238708,63942638.1308,436.4172979,0,4.49621238708,4.49436515147,4.49161701088,4.48752858994,4.48144622799,4.4723974712,4.45893559559,4.43890830361,4.40911361261,4.47813801403,9.13862991333,13.6167679274,0.0864656228285,1
2013-05-22 19:00:00,4.5,8.07413959503,4.5,4.4974540555,63942647.2962,436.41730111,0,4.4974540555,4.49621238708,4.49436515147,4.49161701088,4.48752858994,4.48144622799,4.4723974712,4.45893559559,4.43890830361,4.48530488616,9.13862991333,13.6239347995,0.0864895010673,1
2013-05-22 20:00:00,4.5,9.41724014282,4.5,4.49828867586,63942653.457,436.417303268,0,4.49828867586,4.4974540555,4.49621238708,4.49436515147,4.49161701088,4.48752858994,4.48144622799,4.4723974712,4.45893559559,4.49012228939,8.07413959503,12.5642618844,0.0865055514589,1
2013-05-22 21:00:00,4.5,9.13862991333,4.5,4.49884968808,63942657.5981,436.417304718,0,4.49884968808,4.49828867586,4.4974540555,4.49621238708,4.49436515147,4.49161701088,4.48752858994,4.48144622799,4.4723974712,4.49336043477,9.41724014282,13.9106005776,0.0865163401553,1
2013-05-22 22:00:00,4.5,8.86557006836,4.5,4.49922678732,63942660.3817,436.417305693,0,4.49922678732,4.49884968808,4.49828867586,4.4974540555,4.49621238708,4.49436515147,4.49161701088,4.48752858994,4.48144622799,4.49553704009,9.13862991333,13.6341669534,0.0865235920639,1
2013-05-22 23:00:00,4.5,8.86557006836,4.5,4.49948026459,63942662.2527,436.417306349,0,4.49948026459,4.49922678732,4.49884968808,4.49828867586,4.4974540555,4.49621238708,4.49436515147,4.49161701088,4.48752858994,4.4970001031,8.86557006836,13.3625701715,0.0865284666267,1
2013-05-23 00:00:00,4.80000019073,8.86557006836,4.80000019073,4.49965064605,63943743.5111,436.417685047,0,4.49965064605,4.49948026459,4.49922678732,4.49884968808,4.49828867586,4.4974540555,4.49621238708,4.49436515147,4.49161701088,4.49798353972,8.86557006836,13.3635536081,0.0865317431933,1
2013-05-23 01:00:00,4.86250019073,8.59694957733,4.86250019073,4.59811227638,63944695.3076,436.418018403,0,4.59811227638,4.49965064605,4.49948026459,4.49922678732,4.49884968808,4.49828867586,4.4974540555,4.49621238708,4.49436515147,4.49864458273,8.86557006836,13.3642146511,0.0884252360842,1
2013-05-23 02:00:00,4.77500009537,8.86557006836,4.77500009537,4.68478484022,63945020.0825,436.418132152,0,4.68478484022,4.59811227638,4.49965064605,4.49948026459,4.49922678732,4.49884968808,4.49828867586,4.4974540555,4.49621238708,4.50400627552,8.59694957733,13.1009558528,0.0900920161581,1
2013-05-23 03:00:00,4.67500019073,8.59694957733,4.67500019073,4.71435951832,63944878.3889,436.418082525,0,4.71435951832,4.68478484022,4.59811227638,4.49965064605,4.49948026459,4.49922678732,4.49884968808,4.49828867586,4.4974540555,4.5184694383,8.86557006836,13.3840395067,0.0906607599677,1
2013-05-23 04:00:00,4.5,8.59694957733,4.5,4.70145660693,63944153.1451,436.417828517,0,4.70145660693,4.71435951832,4.68478484022,4.59811227638,4.49965064605,4.49948026459,4.49922678732,4.49884968808,4.49828867586,4.54847532508,8.59694957733,13.1454249024,0.0904126270563,1
2013-05-23 05:00:00,4.65000009537,8.3327703476,4.65000009537,4.63541440274,63944205.6536,436.417846907,0,4.63541440274,4.70145660693,4.71435951832,4.68478484022,4.59811227638,4.49965064605,4.49948026459,4.49922678732,4.49884968808,4.59773892817,8.59694957733,13.1946885055,0.089142584668,1
2013-05-23 06:00:00,4.61250019073,8.3327703476,4.61250019073,4.64019593512,63944105.9489,436.417811987,0,4.64019593512,4.63541440274,4.70145660693,4.71435951832,4.68478484022,4.59811227638,4.49965064605,4.49948026459,4.49922678732,4.64478526967,8.3327703476,12.9775556173,0.0892345372139,1
2013-05-23 07:00:00,4.61250019073,8.3327703476,4.61250019073,4.63111662006,63944038.9298,436.417788514,0,4.63111662006,4.64019593512,4.63541440274,4.70145660693,4.71435951832,4.68478484022,4.59811227638,4.49965064605,4.49948026459,4.6719011419,8.3327703476,13.0046714895,0.0890599350012,1
2013-05-23 08:00:00,4.55000019073,8.3327703476,4.55000019073,4.62501371758,63943768.8811,436.417693933,0,4.62501371758,4.63111662006,4.64019593512,4.63541440274,4.70145660693,4.71435951832,4.68478484022,4.59811227638,4.49965064605,4.67435128865,8.3327703476,13.0071216362,0.0889425714919,1
2013-05-23 09:00:00,4.46250009537,8.3327703476,4.46250009537,4.60042252281,63943272.3604,436.417520032,0,4.60042252281,4.62501371758,4.63111662006,4.64019593512,4.63541440274,4.70145660693,4.71435951832,4.68478484022,4.59811227638,4.65899237096,8.3327703476,12.9917627186,0.0884696639002,1
2013-05-23 10:00:00,4.28749990463,8.3327703476,4.28749990463,4.55520831389,63942308.6101,436.417182489,0,4.55520831389,4.60042252281,4.62501371758,4.63111662006,4.64019593512,4.63541440274,4.70145660693,4.71435951832,4.68478484022,4.6437511196,8.3327703476,12.9765214672,0.0876001598826,1
2013-05-23 11:00:00,4.28749990463,8.3327703476,4.28749990463,4.46744721388,63941660.7998,436.416955601,0,4.46744721388,4.55520831389,4.60042252281,4.62501371758,4.63111662006,4.64019593512,4.63541440274,4.70145660693,4.71435951832,4.62879385516,8.3327703476,12.9615642028,0.0859124464207,1